Location: Unspecified
(0.0000°N, 0.0000°E)
Time: 14:44:09
(UTC+00:00)

COSMOS-2414 - Pass Details

Date: 11 June 2023
Orbit: 908 x 965 km, 82.9° (Epoch: 21 September)

Event Time Altitude Azimuth Distance (km) Brightness Sun altitude
Rises 05:06:56 0° 355° (N) 3,570 9.2 -12.1°
Reaches altitude 10° 05:09:25 10° 354° (N) 2,620 8.5 -11.5°
Maximum altitude 05:15:23 81° 267° (W) 932 5.8 -10.2°
Drops below altitude 10° 05:21:18 10° 180° (S) 2,599 8.0 -8.8°
Sets 05:23:45 0° 179° (S) 3,539 8.7 -8.2°
